Find Starlink 5737

NORAD ID: 55570 Int'l Des: 2023-020 Owner: SPXS Country: US Constellation: starlink operational
LEOCIRCULAR

リアルタイム位置

3D地球を読み込み中...

Starlink 5737について

説明を読み込み中...

次回通過

Passes for default location (London). Set your location on the main map for personalized predictions.

高度履歴

Loading altitude history...

軌道要素

1 55570U 23020B 26125.12975253 .00000479 00000-0 26939-4 0 9992
2 55570 43.0039 46.5359 0000805 260.6480 99.4281 15.27575051177549
Epoch: May 5, 2026 • Age: 28 hours

現在のステータス

高度 494.0 km
速度 7.62 km/s
衛星直下点 -38.60°S, 48.72°W
打ち上げ日 Feb 12, 2023
運用期間 3.2 years
タイプ internet

技術仕様

分類 Payload
質量 305.00 kg
乾燥質量 290.00 kg
総質量 305.00 kg
長さ 0.20 m
直径 2.80 m
スパン 9.00 m
形状 Box + pan
製造者 SPXS
バスタイプ Starlink
フェーズステータス In Orbit
所有者/国 SPXS/US

Most Searched